Tracking 31027 objects as of 19-Jul-2025
HD Live streaming from Space Station
objects crossing your sky now

PSLV DEB

Track PSLV DEB now!
10-day predictions


NORAD ID: 27152
Int'l Code: 2001-049CY
Perigee: 548.4 km
Apogee: 580.1 km
Inclination: 98.0 °
Period: 95.8 minutes
Semi major axis: 6935 km
RCS: 0.063 m2 (small)
Launch date: October 22, 2001
Source: India (IND)
Launch site: SRIHARIKOTA (SRI)

Note: This is SATELLITE DEBRIS
Your satellite tracking list
COSMOS 2251 DEB
Track 1 satellite(s)




NASA's NSSDC Master Catalog

Two Line Element Set (TLE):
1 27152U 01049CY  25199.16800555  .00004641  00000-0  34629-3 0  9999
2 27152  98.0093 273.0448 0022874  49.6936 310.6283 15.03175407270685
Source of the keplerian elements: AFSPC